This is the latest recevied weather packets stored in our database for station/object KJ4OVR-WX. If no packets are shown the sender has not sent any weather packets the latest 10 day(s).
| Time | Temp. | Humidity | Pressure | Rain* | Wind** | Luminosity | Snow |
|---|---|---|---|---|---|---|---|
| 1778077544 | 18.33° C | 93% | 1012.4 hPa | 0 mm | - | - | - |
| 1778077245 | 18.33° C | 93% | 1012.3 hPa | 0 mm | - | - | - |
| 1778076944 | 17.78° C | 92% | 1012.3 hPa | 0 mm | - | - | - |
| 1778076643 | 17.78° C | 92% | 1012.2 hPa | 0 mm | - | - | - |
| 1778076345 | 17.78° C | 92% | 1012.1 hPa | 0 mm | - | - | - |
| 1778076044 | 17.78° C | 92% | 1012.2 hPa | 0 mm | - | - | - |
| 1778075744 | 17.78° C | 92% | 1012.1 hPa | 0 mm | - | - | - |
| 1778075444 | 17.78° C | 92% | 1012.3 hPa | 0 mm | - | - | - |
| 1778075144 | 17.78° C | 91% | 1011.7 hPa | 0 mm | - | - | - |
| 1778074844 | 17.78° C | 91% | 1013.1 hPa | 0 mm | - | - | - |
| 1778074544 | 17.78° C | 90% | 1013.3 hPa | 0 mm | - | - | - |
| 1778074244 | 17.78° C | 90% | 1013.2 hPa | 0 mm | - | - | - |
| 1778073944 | 17.78° C | 90% | 1013.4 hPa | 0 mm | - | - | - |
| 1778073644 | 17.78° C | 89% | 1013.2 hPa | 0 mm | - | - | - |
| 1778073345 | 18.33° C | 89% | 1013 hPa | 0 mm | - | - | - |
| 1778073045 | 18.33° C | 88% | 1014 hPa | 0 mm | - | - | - |
| 1778072745 | 18.89° C | 87% | 1013.4 hPa | 0 mm | - | - | - |
| 1778072445 | 19.44° C | 87% | 1012.3 hPa | 0 mm | - | - | - |
| 1778072145 | 19.44° C | 86% | 1012.1 hPa | 0 mm | - | - | - |
| 1778071844 | 20° C | 85% | 1012 hPa | 0 mm | - | - | - |
| 1778071545 | 20° C | 84% | 1011.7 hPa | 0 mm | - | - | - |
| 1778071245 | 20° C | 83% | 1011.5 hPa | 0 mm | - | - | - |
| 1778070945 | 20° C | 82% | 1011.5 hPa | 0 mm | - | - | - |
| 1778070645 | 20° C | 82% | 1011.4 hPa | 0 mm | - | - | - |
| 1778070346 | 20° C | 82% | 1011.3 hPa | 0 mm | - | - | - |
* Rain latest hour (hover to see other rain measurements)
** Current wind speed in m/s (hover to see current wind gust speed)